TimeEET,TemperatureF,Dew PointF,Humidity,Sea Level PressureIn,VisibilityMPH,Wind Direction,Wind SpeedMPH,Gust SpeedMPH,PrecipitationIn,Events,Conditions,WindDirDegrees,DateUTC
12:00 AM,69.8,59.0,68,29.95,-9999.0,ENE,6.9,-,N/A,,Clear,70,2012-10-26 22:00:00
12:30 AM,69.8,59.0,68,29.95,-9999.0,ENE,6.9,-,N/A,,Clear,70,2012-10-26 22:30:00
1:00 AM,69.8,59.0,68,29.92,-9999.0,East,6.9,-,N/A,,Clear,80,2012-10-26 23:00:00
1:30 AM,68.0,59.0,73,29.92,-9999.0,East,6.9,-,N/A,,Clear,80,2012-10-26 23:30:00
2:00 AM,69,59,61,29.94,6,ENE,9.2,,,,,70,2012-10-27 00:00:00
2:00 AM,68.0,59.0,73,29.92,-9999.0,ENE,9.2,-,N/A,,Clear,70,2012-10-27 00:00:00
2:30 AM,68.0,59.0,73,29.92,-9999.0,ENE,9.2,-,N/A,,Clear,70,2012-10-27 00:30:00
3:00 AM,68.0,59.0,73,29.92,-9999.0,East,10.4,-,N/A,,Clear,90,2012-10-27 01:00:00
3:30 AM,68.0,60.8,78,29.92,-9999.0,East,11.5,-,N/A,,Clear,100,2012-10-27 01:30:00
4:00 AM,68.0,60.8,78,29.92,-9999.0,East,9.2,-,N/A,,Clear,90,2012-10-27 02:00:00
4:30 AM,68.0,60.8,78,29.92,-9999.0,East,9.2,-,N/A,,Clear,90,2012-10-27 02:30:00
5:00 AM,68.0,60.8,78,29.95,-9999.0,East,10.4,-,N/A,,Clear,90,2012-10-27 03:00:00
5:30 AM,68.0,60.8,78,29.95,-9999.0,East,9.2,-,N/A,,Clear,90,2012-10-27 03:30:00
6:00 AM,68.0,59.0,73,29.95,-9999.0,East,8.1,-,N/A,,Clear,100,2012-10-27 04:00:00
6:30 AM,68.0,59.0,73,29.95,-9999.0,ENE,4.6,-,N/A,,Clear,70,2012-10-27 04:30:00
7:00 AM,68.0,59.0,73,29.95,-9999.0,North,4.6,-,N/A,,Clear,10,2012-10-27 05:00:00
7:30 AM,69.8,59.0,68,29.95,-9999.0,NNE,3.5,-,N/A,,Clear,20,2012-10-27 05:30:00
8:00 AM,70,60,62,29.97,6,NNE,4.6,,,,,30,2012-10-27 06:00:00
8:00 AM,69.8,59.0,68,29.98,-9999.0,NNE,4.6,-,N/A,,Clear,30,2012-10-27 06:00:00
8:30 AM,73.4,59.0,61,29.98,-9999.0,NE,6.9,-,N/A,,Clear,50,2012-10-27 06:30:00
9:00 AM,73.4,59.0,61,29.98,-9999.0,NE,6.9,-,N/A,,Clear,40,2012-10-27 07:00:00
9:30 AM,77.0,57.2,50,29.98,-9999.0,NE,8.1,-,N/A,,Clear,40,2012-10-27 07:30:00
10:00 AM,77.0,55.4,47,29.98,-9999.0,ENE,9.2,-,N/A,,Clear,60,2012-10-27 08:00:00
10:30 AM,78.8,55.4,44,29.98,-9999.0,ENE,6.9,-,N/A,,Clear,60,2012-10-27 08:30:00
11:00 AM,78.8,51.8,39,29.98,-9999.0,NE,8.1,-,N/A,,Clear,40,2012-10-27 09:00:00
11:30 AM,80.6,50.0,34,29.98,-9999.0,NE,6.9,-,N/A,,Clear,40,2012-10-27 09:30:00
12:00 PM,80.6,53.6,39,29.95,-9999.0,NE,6.9,-,N/A,,Clear,40,2012-10-27 10:00:00
12:30 PM,82.4,50.0,32,29.95,-9999.0,North,6.9,-,N/A,,Clear,350,2012-10-27 10:30:00
1:00 PM,82.4,48.2,30,29.92,-9999.0,NNE,8.1,-,N/A,,Clear,20,2012-10-27 11:00:00
1:30 PM,82.4,48.2,30,29.92,-9999.0,North,8.1,-,N/A,,Clear,10,2012-10-27 11:30:00
2:00 PM,82,48,20,29.92,6,North,6.9,,,,,10,2012-10-27 12:00:00
2:00 PM,82.4,48.2,30,29.92,-9999.0,North,6.9,-,N/A,,Clear,10,2012-10-27 12:00:00
2:30 PM,82.4,46.4,28,29.92,-9999.0,North,8.1,-,N/A,,Clear,360,2012-10-27 12:30:00
3:00 PM,82.4,46.4,28,29.92,-9999.0,North,9.2,-,N/A,,Clear,10,2012-10-27 13:00:00
3:30 PM,82.4,46.4,28,29.92,-9999.0,NNE,6.9,-,N/A,,Clear,20,2012-10-27 13:30:00
4:00 PM,82.4,48.2,30,29.92,-9999.0,NNE,8.1,-,N/A,,Clear,20,2012-10-27 14:00:00
4:30 PM,82.4,48.2,30,29.92,-9999.0,NNE,8.1,-,N/A,,Clear,20,2012-10-27 14:30:00
5:00 PM,80.6,48.2,32,29.92,-9999.0,North,12.7,-,N/A,,Clear,10,2012-10-27 15:00:00
5:30 PM,80.6,48.2,32,29.92,-9999.0,North,11.5,-,N/A,,Clear,10,2012-10-27 15:30:00
6:00 PM,78.8,53.6,42,29.92,-9999.0,North,11.5,-,N/A,,Clear,360,2012-10-27 16:00:00
6:30 PM,78.8,53.6,42,29.95,-9999.0,North,11.5,-,N/A,,Clear,360,2012-10-27 16:30:00
7:00 PM,77.0,55.4,47,29.95,-9999.0,NNE,13.8,-,N/A,,Clear,20,2012-10-27 17:00:00
7:30 PM,75.2,57.2,53,29.95,-9999.0,NNE,16.1,-,N/A,,Clear,30,2012-10-27 17:30:00
8:00 PM,75,60,49,29.96,6,NE,15.0,,,,,40,2012-10-27 18:00:00
8:00 PM,75.2,59.0,57,29.95,-9999.0,NE,15.0,-,N/A,,Clear,40,2012-10-27 18:00:00
8:30 PM,73.4,60.8,65,29.98,-9999.0,NE,13.8,-,N/A,,Clear,40,2012-10-27 18:30:00
9:00 PM,73.4,59.0,61,29.98,-9999.0,NE,15.0,-,N/A,,Clear,40,2012-10-27 19:00:00
9:30 PM,73.4,59.0,61,29.98,-9999.0,NE,15.0,-,N/A,,Clear,40,2012-10-27 19:30:00
10:00 PM,71.6,59.0,64,29.98,-9999.0,NE,11.5,-,N/A,,Clear,50,2012-10-27 20:00:00
10:30 PM,71.6,59.0,64,29.98,-9999.0,NE,10.4,-,N/A,,Clear,40,2012-10-27 20:30:00
11:00 PM,71.6,59.0,64,29.98,-9999.0,ENE,10.4,-,N/A,,Clear,60,2012-10-27 21:00:00
11:30 PM,71.6,60.8,69,29.98,-9999.0,ENE,12.7,-,N/A,,Clear,60,2012-10-27 21:30:00